Project,Study,Ord_Occ,Event_Num,Cast_ID,Date_Time_UTC,Date_Time_PST,Lat_Dec,Lon_Dec,Sta_ID,Line,Sta,Depth,Pressure,PrQ,Temp1,Temp1Q,Temp2,Temp2Q,TempAve,Salt1,Salt1Q,Salt1_Corr,Salt2,Salt2Q,Salt2_Corr,SaltAve_Corr,Ox1,Ox1Q,Ox1_CruiseCorr,Ox1_StaCorr,Ox2,Ox2Q,Ox2_CruiseCorr,Ox2_StaCorr,OxAve_StaCorr,Ox1uM,Ox1uM_CruiseCorr,Ox1uM_StaCorr,Ox2uM,Ox2uM_CruiseCorr,Ox2uM_StaCorr,OxAveuM_StaCorr,FluorV,FluorQ,EstChl_CruiseCorr,EstChl_StaCorr,ISUSV,ISUSQ,EstNO3_CruiseCorr,EstNO3_StaCorr,SigThetaTS1,SigThetaTS1Q,SigThetaTS2,SigThetaTS2Q,BAT,XMiss,TransQ,pH,pHQ,SPAR,SPARQ,PAR,PARQ,PoT1,PoT2,DynHt,SVA,OxSat1,OxSat2,BTL_Depth,BTL_Temp,SaltB,OxB,OxBuM,Chl-a,Phaeo,NO3,NO2,NH4,PO4,SIL
CalCOFI,2007SR,017,,2007_017d,16-Jul-2020 11:31:49,16-Jul-2020 03:31:49,29.84644,-123.58616,093.3 120.0,093.3,120.0,1.000,1.007,,19.0848,,19.0847,,19.0848,33.3298,,33.3300,33.3585,,33.3601,33.3451,4.0031,,4.1651,4.4323,3.7939,,5.1160,4.0905,4.2614,174.636,181.8144,187.9323,165.507,261.5899,175.5640,181.7482,0.0336,,,0.0610,0.3823,,0.4954,0.770,23.7237,,23.7456,,0.7219,83.4923,,8.142,,1.9022E+00,,4.3828E-01,,19.0847,19.0845,0.0015,,75.309,71.386,,,,,,,,,,,,
CalCOFI,2007SR,017,,2007_017d,16-Jul-2020 11:31:54,16-Jul-2020 03:31:54,29.84644,-123.58618,093.3 120.0,093.3,120.0,2.000,2.014,,19.0856,,19.0844,,19.0850,33.3409,,33.3411,33.3585,,33.3601,33.3506,3.9992,,4.1611,4.4283,3.7763,,5.0740,4.0525,4.2404,174.463,181.6338,187.7526,164.738,261.1668,173.8190,180.7858,0.0336,,,0.0610,0.3805,,0.4449,0.721,23.7320,,23.7458,,0.6814,84.3366,,8.142,,1.8506E+00,,3.3304E-01,,19.0852,19.0840,0.0061,,75.241,71.054,2,19.043,33.3573,5.462,238.43,0.086,0.017,0.0,0.00,0.00,0.26,1.20
CalCOFI,2007SR,017,,2007_017d,16-Jul-2020 11:32:00,16-Jul-2020 03:32:00,29.84644,-123.58616,093.3 120.0,093.3,120.0,3.000,3.021,,19.0873,,19.0862,,19.0868,33.3471,,33.3473,33.3552,,33.3568,33.3521,4.0720,,4.2371,4.5043,3.7621,,5.0401,4.0219,4.2631,177.639,184.9493,191.0521,164.119,268.9348,172.4144,181.7333,0.0340,,,0.0629,0.3604,,0.0000,0.168,23.7363,,23.7428,,0.6715,84.5460,,8.142,,1.9034E+00,,2.4450E-01,,19.0868,19.0857,0.0137,,76.616,70.788,,,,,,,,,,,,
CalCOFI,2007SR,017,,2007_017d,16-Jul-2020 11:32:10,16-Jul-2020 03:32:10,29.84644,-123.58617,093.3 120.0,093.3,120.0,4.000,4.027,,19.0830,,19.0840,,19.0835,33.3618,,33.3620,33.3490,,33.3506,33.3563,3.7583,,3.9093,4.1768,3.7416,,4.9911,3.9778,4.0773,163.951,170.6603,176.8317,163.224,235.4559,170.3835,173.6076,0.0341,,,0.0634,0.3773,,0.3550,0.633,23.7487,,23.7386,,0.6687,84.6065,,8.142,,1.8136E+00,,1.0050E-01,,19.0822,19.0833,0.0248,,70.714,70.396,,,,,,,,,,,,
CalCOFI,2007SR,017,,2007_017d,16-Jul-2020 11:32:12,16-Jul-2020 03:32:12,29.84644,-123.58618,093.3 120.0,093.3,120.0,5.000,5.034,,19.0883,,19.0883,,19.0883,33.3573,,33.3575,33.3523,,33.3539,33.3557,3.8089,,3.9622,4.2296,3.7378,,4.9820,3.9696,4.0996,166.160,172.9663,179.1266,163.060,240.8588,170.0114,174.5690,0.0331,,,0.0585,0.3736,,0.2511,0.531,23.7440,,23.7401,,0.6678,84.6243,,8.142,,1.9054E+00,,7.0705E-02,,19.0875,19.0875,0.0281,,71.672,70.332,,,,,,,,,,,,
CalCOFI,2007SR,017,,2007_017d,16-Jul-2020 11:32:13,16-Jul-2020 03:32:13,29.84644,-123.58616,093.3 120.0,093.3,120.0,6.000,6.041,,19.0876,,19.0881,,19.0879,33.3565,,33.3567,33.3501,,33.3517,33.3542,3.7487,,3.8993,4.1668,3.7366,,4.9792,3.9670,4.0669,163.536,170.2271,176.4005,163.006,234.4409,169.8888,173.1447,0.0340,,,0.0629,0.3725,,0.2202,0.501,23.7436,,23.7385,,0.6673,84.6349,,8.143,,1.9043E+00,,5.3688E-02,,19.0865,19.0871,0.0322,,70.538,70.308,,,,,,,,,,,,
CalCOFI,2007SR,017,,2007_017d,16-Jul-2020 11:32:15,16-Jul-2020 03:32:15,29.84644,-123.58616,093.3 120.0,093.3,120.0,7.000,7.048,,19.0837,,19.0867,,19.0852,33.3585,,33.3587,33.3470,,33.3486,33.3537,3.6314,,3.7767,4.0443,3.7341,,4.9732,3.9616,4.0030,158.415,164.8813,171.0803,162.897,221.9156,169.6415,170.3609,0.0335,,,0.0605,0.3706,,0.1669,0.448,23.7461,,23.7366,,0.6671,84.6380,,8.143,,1.9043E+00,,3.8018E-02,,19.0825,19.0855,0.0364,,68.326,70.257,,,,,,,,,,,,
CalCOFI,2007SR,017,,2007_017d,16-Jul-2020 11:32:17,16-Jul-2020 03:32:17,29.84644,-123.58617,093.3 120.0,093.3,120.0,8.000,8.055,,19.0864,,19.0875,,19.0870,33.3574,,33.3576,33.3470,,33.3486,33.3531,3.4991,,3.6385,3.9062,3.7283,,4.9594,3.9491,3.9277,152.644,158.8570,165.0849,162.646,207.8006,169.0719,167.0784,0.0394,,0.0387,0.0889,0.3708,,0.1725,0.454,23.7447,,23.7364,,0.6675,84.6305,,8.142,,1.9043E+00,,8.5161E-03,,19.0850,19.0861,0.0406,,65.839,70.150,,,,,,,,,,,,
CalCOFI,2007SR,017,,2007_017d,16-Jul-2020 11:32:19,16-Jul-2020 03:32:19,29.84644,-123.58616,093.3 120.0,093.3,120.0,9.000,9.062,,19.0874,,19.0896,,19.0885,33.3569,,33.3571,33.3476,,33.3492,33.3532,3.4057,,3.5409,3.8087,3.7215,,4.9431,3.9345,3.8716,148.569,154.6031,160.8513,162.349,197.8337,168.3980,164.6247,0.0344,,,0.0649,0.3719,,0.2034,0.484,23.7441,,23.7364,,0.6668,84.6455,,8.143,,1.9043E+00,,1.0602E-03,,19.0858,19.0880,0.0448,,64.083,70.025,,,,,,,,,,,,
CalCOFI,2007SR,017,,2007_017d,16-Jul-2020 11:32:21,16-Jul-2020 03:32:21,29.84644,-123.58617,093.3 120.0,093.3,120.0,10.000,10.069,,19.0823,,19.0893,,19.0858,33.3597,,33.3599,33.3468,,33.3484,33.3542,3.3367,,3.4688,3.7367,3.7164,,4.9310,3.9235,3.8301,145.558,151.4599,157.7232,162.126,190.4692,167.8920,162.8076,0.0349,,,0.0673,0.3722,,0.2118,0.492,23.7476,,23.7359,,0.6667,84.6475,,8.142,,1.9043E+00,,1.1404E-05,,19.0805,19.0876,0.0489,,62.779,69.928,10,19.046,33.3545,5.435,237.25,0.087,0.013,0.0,0.00,0.00,0.26,1.16
CalCOFI,2007SR,017,,2007_017d,16-Jul-2020 11:32:24,16-Jul-2020 03:32:24,29.84644,-123.58618,093.3 120.0,093.3,120.0,11.000,11.076,,19.0829,,19.0895,,19.0862,33.3590,,33.3592,33.3486,,33.3502,33.3547,3.4041,,3.5392,3.8071,3.7108,,4.9176,3.9114,3.8593,148.499,154.5300,160.7786,161.881,197.6625,167.3360,164.0573,0.0339,,,0.0624,0.3714,,0.1893,0.470,23.7469,,23.7373,,0.6677,84.6267,,8.142,,1.9043E+00,,1.0000E-12,,19.0810,19.0875,0.0531,,64.048,69.823,,,,,,,,,,,,
CalCOFI,2007SR,017,,2007_017d,16-Jul-2020 11:32:25,16-Jul-2020 03:32:25,29.84644,-123.58618,093.3 120.0,093.3,120.0,12.000,12.082,,19.0868,,19.0890,,19.0879,33.3567,,33.3569,33.3548,,33.3564,33.3567,3.5018,,3.6413,3.9090,3.7048,,4.9033,3.8985,3.9038,152.762,158.9802,165.2074,161.619,208.0892,166.7415,165.9745,0.0343,,,0.0644,0.3703,,0.1584,0.440,23.7442,,23.7422,,0.6685,84.6090,,8.143,,1.9043E+00,,1.0000E-12,,19.0846,19.0869,0.0573,,65.891,69.713,,,,,,,,,,,,
CalCOFI,2007SR,017,,2007_017d,16-Jul-2020 11:32:26,16-Jul-2020 03:32:26,29.84644,-123.58616,093.3 120.0,093.3,120.0,13.000,13.089,,19.0843,,19.0829,,19.0836,33.3583,,33.3585,33.3618,,33.3634,33.3610,3.5290,,3.6698,3.9374,3.7035,,4.9002,3.8957,3.9166,153.949,160.2193,166.4406,161.562,210.9924,166.6122,166.5264,0.0333,,,0.0595,0.3696,,0.1388,0.421,23.7461,,23.7491,,0.6689,84.6018,,8.142,,1.9043E+00,,1.0000E-12,,19.0819,19.0806,0.0615,,66.400,69.683,,,,,,,,,,,,
CalCOFI,2007SR,017,,2007_017d,16-Jul-2020 11:32:30,16-Jul-2020 03:32:30,29.84644,-123.58617,093.3 120.0,093.3,120.0,14.000,14.096,,19.0790,,19.0867,,19.0829,33.3618,,33.3620,33.3519,,33.3535,33.3578,3.5273,,3.6680,3.9357,3.6973,,4.8854,3.8823,3.9090,153.872,160.1389,166.3606,161.291,210.8041,165.9972,166.1789,0.0338,,,0.0619,0.3683,,0.1023,0.385,23.7502,,23.7407,,0.6675,84.6304,,8.142,,1.9043E+00,,1.0000E-12,,19.0766,19.0842,0.0656,,66.362,69.567,,,,,,,,,,,,
CalCOFI,2007SR,017,,2007_017d,16-Jul-2020 11:32:32,16-Jul-2020 03:32:32,29.84644,-123.58618,093.3 120.0,093.3,120.0,15.000,15.103,,19.0885,,19.0892,,19.0889,33.3565,,33.3567,33.3575,,33.3591,33.3579,3.5415,,3.6828,3.9505,3.6919,,4.8725,3.8707,3.9106,154.496,160.7903,167.0089,161.055,212.3303,165.4617,166.2353,0.0330,,,0.0580,0.3670,,0.0658,0.349,23.7438,,23.7443,,0.6683,84.6150,,8.141,,1.9043E+00,,1.0000E-12,,19.0858,19.0866,0.0698,,66.640,69.471,,,,,,,,,,,,
CalCOFI,2007SR,017,,2007_017d,16-Jul-2020 11:32:34,16-Jul-2020 03:32:34,29.84644,-123.58618,093.3 120.0,093.3,120.0,16.000,16.110,,19.0866,,19.0834,,19.0850,33.3581,,33.3583,33.3662,,33.3678,33.3631,3.5440,,3.6854,3.9531,3.6940,,4.8775,3.8752,3.9142,154.605,160.9041,167.1221,161.146,212.5969,165.6682,166.3952,0.0333,,,0.0595,0.3663,,0.0461,0.330,23.7455,,23.7525,,0.6678,84.6243,,8.142,,1.9043E+00,,1.0000E-12,,19.0838,19.0805,0.0740,,66.686,69.507,,,,,,,,,,,,
CalCOFI,2007SR,017,,2007_017d,16-Jul-2020 11:32:35,16-Jul-2020 03:32:35,29.84644,-123.58617,093.3 120.0,093.3,120.0,17.000,17.117,,19.0823,,19.0606,,19.0715,33.3603,,33.3605,33.3811,,33.3827,33.3716,3.4877,,3.6266,3.8943,3.7026,,4.8980,3.8937,3.8940,152.146,158.3371,164.5675,161.520,206.5825,166.5168,165.5422,0.0334,,,0.0600,0.3648,,0.0040,0.289,23.7483,,23.7697,,0.6686,84.6069,,8.142,,1.9043E+00,,1.0000E-12,,19.0793,19.0576,0.0782,,65.621,69.646,,,,,,,,,,,,
CalCOFI,2007SR,017,,2007_017d,16-Jul-2020 11:32:37,16-Jul-2020 03:32:37,29.84644,-123.58617,093.3 120.0,093.3,120.0,18.000,18.124,,19.0799,,19.0813,,19.0806,33.3617,,33.3619,33.3608,,33.3624,33.3622,4.6826,,4.8751,5.1416,3.6967,,4.8839,3.8810,4.5113,204.272,212.7514,218.7211,161.267,334.0753,165.9427,192.3319,0.0339,,,0.0624,0.3622,,0.0000,0.217,23.7500,,23.7490,,0.6675,84.6315,,8.142,,1.9043E+00,,1.0000E-12,,19.0767,19.0781,0.0823,,88.100,69.554,,,,,,,,,,,,
CalCOFI,2007SR,017,,2007_017d,16-Jul-2020 11:32:40,16-Jul-2020 03:32:40,29.84644,-123.58618,093.3 120.0,093.3,120.0,19.000,19.131,,19.0302,,19.0314,,19.0308,33.3642,,33.3644,33.3605,,33.3621,33.3633,5.2791,,5.4984,5.7643,3.7082,,4.9114,3.9058,4.8351,230.293,239.9148,245.7543,161.763,397.7190,167.0683,206.4113,0.0338,,,0.0619,0.3605,,0.0000,0.171,23.7646,,23.7614,,0.6669,84.6433,,8.142,,1.9043E+00,,1.0000E-12,,19.0269,19.0281,0.0865,,99.235,69.704,,,,,,,,,,,,
CalCOFI,2007SR,017,,2007_017d,16-Jul-2020 11:32:42,16-Jul-2020 03:32:42,29.84644,-123.58618,093.3 120.0,093.3,120.0,20.000,20.138,,18.9952,,19.0064,,19.0008,33.3636,,33.3638,33.3651,,33.3667,33.3653,5.2024,,5.4183,5.6842,3.7219,,4.9441,3.9353,4.8098,226.946,236.4208,242.2771,162.360,389.5327,168.4229,205.3500,0.0341,,,0.0634,0.3607,,0.0000,0.176,23.7730,,23.7713,,0.6703,84.5727,,8.143,,1.9043E+00,,1.0000E-12,,18.9917,19.0029,0.0907,,97.728,69.931,,,,,,,,,,,,
CalCOFI,2007SR,017,,2007_017d,16-Jul-2020 11:32:43,16-Jul-2020 03:32:43,29.84644,-123.58618,093.3 120.0,093.3,120.0,21.000,21.145,,18.9904,,18.9878,,18.9891,33.3629,,33.3631,33.3626,,33.3642,33.3637,5.2114,,5.4277,5.6936,3.7316,,4.9672,3.9562,4.8249,227.337,236.8290,242.6833,162.782,390.4890,169.3805,206.0319,0.0342,,,0.0639,0.3620,,0.0000,0.212,23.7737,,23.7741,,0.6688,84.6038,,8.144,,1.9043E+00,,1.0000E-12,,18.9867,18.9841,0.0948,,97.887,70.087,,,,,,,,,,,,
CalCOFI,2007SR,017,,2007_017d,16-Jul-2020 11:32:45,16-Jul-2020 03:32:45,29.84644,-123.58616,093.3 120.0,093.3,120.0,22.000,22.152,,18.9629,,18.9627,,18.9628,33.3631,,33.3633,33.3633,,33.3649,33.3641,5.2165,,5.4330,5.6990,3.7475,,5.0052,3.9905,4.8448,227.556,237.0576,242.9109,163.474,391.0247,170.9508,206.9309,0.0346,,,0.0659,0.3636,,0.0000,0.256,23.7808,,23.7810,,0.6687,84.6049,,8.144,,1.9043E+00,,1.0000E-12,,18.9590,18.9588,0.0990,,97.932,70.353,,,,,,,,,,,,
CalCOFI,2007SR,017,,2007_017d,16-Jul-2020 11:32:48,16-Jul-2020 03:32:48,29.84644,-123.58618,093.3 120.0,093.3,120.0,23.000,23.159,,18.9621,,18.9586,,18.9604,33.3651,,33.3653,33.3634,,33.3650,33.3652,5.2169,,5.4334,5.6994,3.7678,,5.0537,4.0342,4.8668,227.576,237.0785,242.9316,164.361,391.0736,172.9635,207.9476,0.0349,,,0.0673,0.3664,,0.0489,0.333,23.7827,,23.7822,,0.6681,84.6177,,8.143,,1.9043E+00,,1.0000E-12,,18.9580,18.9545,0.1031,,97.940,70.730,,,,,,,,,,,,
CalCOFI,2007SR,017,,2007_017d,16-Jul-2020 11:32:50,16-Jul-2020 03:32:50,29.84644,-123.58618,093.3 120.0,093.3,120.0,24.000,24.166,,18.9237,,18.9206,,18.9222,33.3644,,33.3646,33.3648,,33.3664,33.3655,5.2373,,5.4548,5.7207,3.7847,,5.0940,4.0706,4.8957,228.462,238.0034,243.8521,165.094,393.2406,174.6268,209.2395,0.0349,,,0.0673,0.3684,,0.1051,0.388,23.7918,,23.7929,,0.6719,84.5367,,8.145,,1.9043E+00,,1.0000E-12,,18.9194,18.9163,0.1072,,98.251,70.996,,,,,,,,,,,,
CalCOFI,2007SR,017,,2007_017d,16-Jul-2020 11:32:51,16-Jul-2020 03:32:51,29.84644,-123.58618,093.3 120.0,093.3,120.0,25.000,25.173,,18.8478,,18.8493,,18.8486,33.3649,,33.3651,33.3639,,33.3655,33.3653,5.2437,,5.4614,5.7273,3.7958,,5.1205,4.0945,4.9109,228.736,238.2894,244.1368,165.580,393.9108,175.7296,209.9332,0.0344,,,0.0649,0.3683,,0.1023,0.385,23.8113,,23.8102,,0.6731,84.5121,,8.145,,1.9043E+00,,1.0000E-12,,18.8434,18.8449,0.1114,,98.232,71.111,25,18.819,33.3520,5.465,238.57,0.088,0.017,0.0,0.00,0.00,0.26,1.16
CalCOFI,2007SR,017,,2007_017d,16-Jul-2020 11:32:53,16-Jul-2020 03:32:53,29.84644,-123.58618,093.3 120.0,093.3,120.0,26.000,26.180,,18.8177,,18.8179,,18.8178,33.3672,,33.3674,33.3674,,33.3690,33.3682,5.2485,,5.4665,5.7324,3.8050,,5.1425,4.1144,4.9234,228.943,238.5055,244.3518,165.977,394.4171,176.6305,210.4912,0.0355,,,0.0702,0.3675,,0.0798,0.363,23.8207,,23.8208,,0.6727,84.5203,,8.145,,1.9043E+00,,1.0000E-12,,18.8132,18.8133,0.1155,,98.268,71.241,,,,,,,,,,,,
CalCOFI,2007SR,017,,2007_017d,16-Jul-2020 11:32:55,16-Jul-2020 03:32:55,29.84644,-123.58618,093.3 120.0,093.3,120.0,27.000,27.186,,18.8154,,18.8164,,18.8159,33.3676,,33.3678,33.3680,,33.3696,33.3687,5.2480,,5.4659,5.7318,3.8129,,5.1613,4.1314,4.9316,228.923,238.4846,244.3310,166.324,394.3682,177.4179,210.8745,0.0354,,,0.0697,0.3645,,0.0000,0.281,23.8216,,23.8217,,0.6716,84.5446,,8.145,,1.9043E+00,,1.0000E-12,,18.8107,18.8116,0.1196,,98.255,71.389,,,,,,,,,,,,
CalCOFI,2007SR,017,,2007_017d,16-Jul-2020 11:32:59,16-Jul-2020 03:32:59,29.84644,-123.58618,093.3 120.0,093.3,120.0,28.000,28.193,,18.8187,,18.8185,,18.8186,33.3683,,33.3685,33.3688,,33.3704,33.3695,5.2510,,5.4691,5.7350,3.8241,,5.1881,4.1555,4.9453,229.053,238.6203,244.4661,166.812,394.6861,178.5252,211.4957,0.0360,,,0.0726,0.3579,,0.0000,0.099,23.8214,,23.8218,,0.6707,84.5626,,8.145,,1.9043E+00,,1.0000E-12,,18.8137,18.8136,0.1237,,98.317,71.601,,,,,,,,,,,,
CalCOFI,2007SR,017,,2007_017d,16-Jul-2020 11:33:00,16-Jul-2020 03:33:00,29.84644,-123.58618,093.3 120.0,093.3,120.0,29.000,29.200,,18.8101,,18.8096,,18.8099,33.3693,,33.3695,33.3697,,33.3713,33.3704,5.2514,,5.4695,5.7354,3.8314,,5.2055,4.1713,4.9534,229.070,238.6381,244.4838,167.128,394.7277,179.2423,211.8631,0.0345,,,0.0654,0.3548,,0.0000,0.014,23.8244,,23.8247,,0.6703,84.5720,,8.145,,1.9043E+00,,1.0000E-12,,18.8050,18.8045,0.1278,,98.310,71.725,,,,,,,,,,,,
CalCOFI,2007SR,017,,2007_017d,16-Jul-2020 11:33:02,16-Jul-2020 03:33:02,29.84644,-123.58618,093.3 120.0,093.3,120.0,30.000,30.207,,18.8017,,18.8006,,18.8012,33.3709,,33.3711,33.3715,,33.3731,33.3721,5.2564,,5.4747,5.7406,3.8332,,5.2098,4.1751,4.9579,229.286,238.8636,244.7082,167.207,395.2560,179.4216,212.0649,0.0347,,,0.0663,0.3532,,0.0000,0.000,23.8277,,23.8284,,0.6695,84.5885,,8.145,,1.9043E+00,,1.0000E-12,,18.7965,18.7954,0.1319,,98.388,71.749,,,,,,,,,,,,
CalCOFI,2007SR,017,,2007_017d,16-Jul-2020 11:33:03,16-Jul-2020 03:33:03,29.84644,-123.58618,093.3 120.0,093.3,120.0,31.000,31.214,,18.7924,,18.7909,,18.7917,33.3725,,33.3727,33.3730,,33.3746,33.3737,5.2549,,5.4731,5.7390,3.8382,,5.2217,4.1859,4.9625,229.220,238.7947,244.6396,167.423,395.0946,179.9117,212.2757,0.0347,,,0.0663,0.3515,,0.0000,0.000,23.8313,,23.8321,,0.6703,84.5707,,8.145,,1.9043E+00,,1.0000E-12,,18.7869,18.7854,0.1360,,98.344,71.829,,,,,,,,,,,,
CalCOFI,2007SR,017,,2007_017d,16-Jul-2020 11:33:05,16-Jul-2020 03:33:05,29.84644,-123.58618,093.3 120.0,093.3,120.0,32.000,32.221,,18.7916,,18.7913,,18.7915,33.3732,,33.3734,33.3737,,33.3753,33.3744,5.2568,,5.4751,5.7410,3.8428,,5.2327,4.1958,4.9684,229.303,238.8813,244.7258,167.627,395.2976,180.3746,212.5502,0.0348,,,0.0668,0.3497,,0.0000,0.000,23.8320,,23.8325,,0.6689,84.6020,,8.145,,1.9043E+00,,1.0000E-12,,18.7860,18.7857,0.1401,,98.379,71.917,,,,,,,,,,,,
CalCOFI,2007SR,017,,2007_017d,16-Jul-2020 11:33:09,16-Jul-2020 03:33:09,29.84644,-123.58618,093.3 120.0,093.3,120.0,33.000,33.228,,18.7922,,18.7876,,18.7899,33.3726,,33.3728,33.3739,,33.3755,33.3742,5.2519,,5.4700,5.7359,3.8504,,5.2509,4.2122,4.9741,229.091,238.6600,244.5056,167.956,394.7791,181.1212,212.8134,0.0349,,,0.0673,0.3489,,0.0000,0.000,23.8315,,23.8336,,0.6682,84.6170,,8.145,,1.9043E+00,,1.0000E-12,,18.7864,18.7818,0.1442,,98.288,72.054,,,,,,,,,,,,
CalCOFI,2007SR,017,,2007_017d,16-Jul-2020 11:33:10,16-Jul-2020 03:33:10,29.84644,-123.58618,093.3 120.0,093.3,120.0,34.000,34.235,,18.7749,,18.7750,,18.7750,33.3754,,33.3756,33.3758,,33.3774,33.3765,5.2537,,5.4719,5.7378,3.8548,,5.2614,4.2217,4.9798,229.169,238.7414,244.5866,168.148,394.9698,181.5568,213.0717,0.0342,,,0.0639,0.3492,,0.0000,0.000,23.8380,,23.8383,,0.6693,84.5923,,8.145,,1.9043E+00,,1.0000E-12,,18.7690,18.7690,0.1483,,98.292,72.120,,,,,,,,,,,,
CalCOFI,2007SR,017,,2007_017d,16-Jul-2020 11:33:12,16-Jul-2020 03:33:12,29.84644,-123.58618,093.3 120.0,093.3,120.0,35.000,35.242,,18.7698,,18.7698,,18.7698,33.3757,,33.3759,33.3760,,33.3776,33.3768,5.2559,,5.4742,5.7401,3.8538,,5.2590,4.2195,4.9798,229.262,238.8385,244.6832,168.103,395.1973,181.4547,213.0690,0.0346,,,0.0659,0.3492,,0.0000,0.000,23.8396,,23.8398,,0.6681,84.6191,,8.144,,1.9043E+00,,1.0000E-12,,18.7636,18.7636,0.1524,,98.323,72.094,,,,,,,,,,,,
CalCOFI,2007SR,017,,2007_017d,16-Jul-2020 11:33:13,16-Jul-2020 03:33:13,29.84644,-123.58618,093.3 120.0,093.3,120.0,36.000,36.249,,18.7597,,18.7595,,18.7596,33.3767,,33.3769,33.3770,,33.3786,33.3778,5.2575,,5.4759,5.7418,3.8588,,5.2709,4.2303,4.9861,229.331,238.9105,244.7549,168.320,395.3661,181.9471,213.3510,0.0348,,,0.0668,0.3492,,0.0000,0.000,23.8429,,23.8432,,0.6697,84.5850,,8.145,,1.9043E+00,,1.0000E-12,,18.7534,18.7532,0.1565,,98.335,72.174,,,,,,,,,,,,
CalCOFI,2007SR,017,,2007_017d,16-Jul-2020 11:33:17,16-Jul-2020 03:33:17,29.84644,-123.58618,093.3 120.0,093.3,120.0,37.000,37.256,,18.7584,,18.7602,,18.7593,33.3771,,33.3773,33.3775,,33.3791,33.3782,5.2399,,5.4575,5.7234,3.8692,,5.2957,4.2527,4.9881,228.566,238.1119,243.9602,168.774,393.4950,182.9773,213.4688,0.0360,,,0.0726,0.3517,,0.0000,0.000,23.8436,,23.8434,,0.6687,84.6066,,8.144,,1.9043E+00,,1.0000E-12,,18.7519,18.7537,0.1613,,98.005,72.370,,,,,,,,,,,,
CalCOFI,2007SR,017,,2007_017d,16-Jul-2020 11:33:20,16-Jul-2020 03:33:20,29.84644,-123.58618,093.3 120.0,093.3,120.0,38.000,38.263,,18.7347,,18.7356,,18.7352,33.3735,,33.3737,33.3719,,33.3735,33.3736,5.4257,,5.6516,5.9173,3.8955,,5.3585,4.3094,5.1134,236.668,246.5696,252.3773,169.920,413.3113,185.5778,218.9776,0.0356,,,0.0707,0.3558,,0.0000,0.041,23.8468,,23.8454,,0.6701,84.5753,,8.144,,1.9043E+00,,1.0000E-12,,18.7280,18.7290,0.1659,,101.432,72.825,,,,,,,,,,,,
CalCOFI,2007SR,017,,2007_017d,16-Jul-2020 11:33:20,16-Jul-2020 03:33:20,29.84644,-123.58618,093.3 120.0,093.3,120.0,39.000,39.270,,18.2859,,18.2786,,18.2823,33.3096,,33.3098,33.2913,,33.2929,33.3014,5.4790,,5.7073,5.9730,3.9188,,5.4142,4.3596,5.1663,238.977,248.9800,254.7761,170.929,418.9588,187.8674,221.3218,0.0367,,0.0070,0.0760,0.3571,,0.0000,0.077,23.9091,,23.8969,,0.6762,84.4475,,8.148,,1.9043E+00,,1.0000E-12,,18.2792,18.2719,0.1700,,101.526,72.598,,,,,,,,,,,,
CalCOFI,2007SR,017,,2007_017d,16-Jul-2020 11:33:21,16-Jul-2020 03:33:21,29.84644,-123.58618,093.3 120.0,093.3,120.0,40.000,40.278,,17.5406,,17.5305,,17.5356,33.3060,,33.3062,33.2978,,33.2994,33.3028,5.5654,,5.7976,6.0632,3.9765,,5.5519,4.4839,5.2736,242.705,252.8716,258.6491,173.413,428.0770,193.5039,226.0765,0.0372,,0.0129,0.0784,0.3586,,0.0000,0.118,24.0876,,24.0837,,0.6745,84.4832,,8.152,,1.9043E+00,,1.0000E-12,,17.5339,17.5238,0.1739,,101.675,72.629,40,17.347,33.3182,,252.53,0.109,0.029,0.0,0.00,0.00,0.26,1.16
CalCOFI,2007SR,017,,2007_017d,16-Jul-2020 11:33:22,16-Jul-2020 03:33:22,29.84644,-123.58617,093.3 120.0,093.3,120.0,41.000,41.285,,17.3344,,17.3817,,17.3581,33.3272,,33.3274,33.3357,,33.3373,33.3324,5.6143,,5.8487,6.1142,3.9877,,5.5786,4.5081,5.3112,244.824,255.0837,260.8506,173.892,433.2597,194.5909,227.7208,0.0367,,0.0070,0.0760,0.3607,,0.0000,0.176,24.1532,,24.1484,,0.6701,84.5759,,8.155,,1.9043E+00,,1.0000E-12,,17.3276,17.3748,0.1777,,102.178,72.644,,,,,,,,,,,,
CalCOFI,2007SR,017,,2007_017d,16-Jul-2020 11:33:27,16-Jul-2020 03:33:27,29.84644,-123.58617,093.3 120.0,093.3,120.0,42.000,42.292,,17.8232,,17.9116,,17.8674,33.3386,,33.3388,33.3313,,33.3329,33.3359,5.4408,,5.6674,5.9331,3.9704,,5.5373,4.4708,5.2020,237.280,247.2085,253.0131,173.158,414.8082,192.9253,222.9692,0.0385,,0.0282,0.0846,0.3657,,0.0293,0.314,24.0446,,24.0179,,0.6717,84.5416,,8.150,,1.9043E+00,,1.0000E-12,,17.8161,17.9044,0.1823,,99.967,73.063,,,,,,,,,,,,
CalCOFI,2007SR,017,,2007_017d,16-Jul-2020 11:33:29,16-Jul-2020 03:33:29,29.84644,-123.58618,093.3 120.0,093.3,120.0,43.000,43.299,,17.5151,,17.4717,,17.4934,33.3162,,33.3164,33.3179,,33.3195,33.3180,5.5913,,5.8246,6.0902,4.0129,,5.6388,4.5624,5.3263,243.829,254.0450,259.8169,174.995,430.8261,197.0938,228.4554,0.0371,,0.0117,0.0779,0.3661,,0.0405,0.325,24.1015,,24.1133,,0.6671,84.6387,,8.151,,1.9043E+00,,1.0000E-12,,17.5079,17.4645,0.1865,,102.103,73.220,,,,,,,,,,,,
CalCOFI,2007SR,017,,2007_017d,16-Jul-2020 11:33:30,16-Jul-2020 03:33:30,29.84644,-123.58618,093.3 120.0,093.3,120.0,44.000,44.306,,17.0955,,17.0969,,17.0962,33.3544,,33.3546,33.3523,,33.3539,33.3543,5.6233,,5.8581,6.1236,4.0414,,5.7068,4.6238,5.3737,245.195,255.4710,261.2360,176.218,434.1672,199.8689,230.5525,0.0355,,,0.0702,0.3666,,0.0546,0.338,24.2308,,24.2288,,0.6655,84.6716,,8.153,,1.9043E+00,,1.0000E-12,,17.0883,17.0896,0.1902,,101.889,73.227,,,,,,,,,,,,
CalCOFI,2007SR,017,,2007_017d,16-Jul-2020 11:33:31,16-Jul-2020 03:33:31,29.84644,-123.58618,093.3 120.0,093.3,120.0,45.000,45.313,,16.9876,,16.9921,,16.9899,33.3376,,33.3378,33.3422,,33.3438,33.3408,5.6548,,5.8910,6.1565,4.0563,,5.7424,4.6559,5.4062,246.567,256.9032,262.6614,176.865,437.5229,201.3371,231.9993,0.0363,,0.0023,0.0741,0.3671,,0.0686,0.352,24.2433,,24.2458,,0.6664,84.6531,,8.154,,1.9043E+00,,1.0000E-12,,16.9802,16.9848,0.1940,,102.238,73.345,,,,,,,,,,,,
CalCOFI,2007SR,017,,2007_017d,16-Jul-2020 11:33:34,16-Jul-2020 03:33:34,29.84644,-123.58618,093.3 120.0,093.3,120.0,46.000,46.320,,17.1118,,17.0682,,17.0900,33.3462,,33.3464,33.3463,,33.3479,33.3472,5.5853,,5.8184,6.0839,4.0645,,5.7620,4.6735,5.3787,243.542,253.7454,259.5187,177.226,430.1242,202.1562,230.8375,0.0387,,0.0305,0.0856,0.3711,,0.1809,0.462,24.2207,,24.2310,,0.6673,84.6343,,8.153,,1.9043E+00,,1.0000E-12,,17.1042,17.0607,0.1977,,101.228,73.603,,,,,,,,,,,,
CalCOFI,2007SR,017,,2007_017d,16-Jul-2020 11:33:37,16-Jul-2020 03:33:37,29.84644,-123.58618,093.3 120.0,093.3,120.0,47.000,47.327,,16.8764,,16.8688,,16.8726,33.2993,,33.2995,33.3184,,33.3200,33.3098,5.6722,,5.9092,6.1746,4.1038,,5.8558,4.7582,5.4664,247.325,257.6945,263.4489,178.934,439.3768,206.0320,234.7405,0.0368,,0.0082,0.0765,0.3761,,0.3213,0.600,24.2400,,24.2564,,0.6678,84.6242,,8.156,,1.9043E+00,,1.0000E-12,,16.8688,16.8612,0.2014,,102.307,74.016,,,,,,,,,,,,
CalCOFI,2007SR,017,,2007_017d,16-Jul-2020 11:33:39,16-Jul-2020 03:33:39,29.84644,-123.58618,093.3 120.0,093.3,120.0,48.000,48.334,,16.4861,,16.4886,,16.4874,33.2830,,33.2832,33.2953,,33.2969,33.2901,5.7447,,5.9849,6.2503,4.1361,,5.9329,4.8278,5.5391,250.466,260.9734,266.7120,180.332,447.0593,209.2042,237.9581,0.0384,,0.0270,0.0841,0.3777,,0.3662,0.644,24.3181,,24.3270,,0.6686,84.6076,,8.160,,1.9043E+00,,1.0000E-12,,16.4784,16.4809,0.2051,,102.823,74.041,,,,,,,,,,,,
CalCOFI,2007SR,017,,2007_017d,16-Jul-2020 11:33:40,16-Jul-2020 03:33:40,29.84644,-123.58618,093.3 120.0,093.3,120.0,49.000,49.341,,16.3617,,16.3645,,16.3631,33.2900,,33.2902,33.2947,,33.2963,33.2933,5.7421,,5.9822,6.2476,4.1461,,5.9568,4.8494,5.5485,250.346,260.8481,266.5874,180.761,446.7658,210.1777,238.3826,0.0392,,0.0364,0.0879,0.3789,,0.3999,0.677,24.3521,,24.3550,,0.6681,84.6176,,8.159,,1.9043E+00,,1.0000E-12,,16.3539,16.3567,0.2087,,102.533,74.040,,,,,,,,,,,,